[[{"header":{"parameterUnit":"m.s-1","parameterCategory":2,"la1":30.2991,"la2":30.254,"lo1":-89.0895,"lo2":-89.0444,"dy":0.0017,"dx":0.0017,"nx":28,"ny":28,"refTime":"2023-07-30T03:00:00:Z","depth":"0","parameterNumber":2,"parameterNumberName":"U-component_of_CURRENTS"},"data":[0,0,0,0,0,0,0,0,0,0,0,0,0,0,0,0,0,0,0,0,0,0,0,0,0,0,0,0,0,0,0,0,0,0,0,0,0,0,0,0,0,0,0,0,0,0,0,0,0,0,0,0,0,0,0,0,0,0,-0.3708,-0.3708,0,-0.3675,-0.3674,-0.3673,-0.3607,-0.3606,-0.3606,-0.3605,-0.3493,-0.3491,-0.3488,0,0,0,0,0,0,0,0,0,0,0,0,0,-0.3516,-0.3521,-0.3708,-0.3709,-0.3709,-0.3675,-0.3674,-0.3673,-0.3607,-0.3606,-0.3605,-0.3605,-0.3493,-0.3491,-0.3488,0,0,0,0,0,0,0,0,0,0,0,0,0,-0.3548,-0.3522,-0.3708,-0.3676,-0.3673,-0.3675,-0.3674,-0.3673,-0.3608,-0.3606,-0.3605,-0.3604,-0.3494,-0.3491,-0.3488,-0.3492,0,0,-0.3478,-0.3476,0,0,0,0,0,0,0,0,-0.3547,-0.3555,-0.368,-0.3678,-0.3675,-0.3649,-0.3565,-0.361,-0.3608,-0.3627,-0.3605,-0.3603,-0.3542,-0.3535,-0.3525,-0.3486,-0.3482,-0.3477,-0.3475,-0.3474,-0.3473,0,0,0,0,0,0,0,-0.3545,-0.3555,-0.369,-0.3681,-0.3677,-0.3595,-0.3599,-0.3573,-0.3586,-0.3625,-0.3621,-0.3627,-0.3539,-0.3528,-0.3521,-0.348,-0.3477,-0.3474,-0.3472,-0.3471,-0.3438,-0.3439,0,0,0,0,0,0,-0.3573,-0.3555,-0.3691,-0.3689,-0.3612,-0.36,-0.3605,-0.3654,-0.3588,-0.3579,-0.3628,-0.3624,-0.3534,-0.3525,-0.3517,-0.3491,-0.3474,-0.3471,-0.3469,-0.3436,-0.3438,-0.3439,0,0,0,0,0,0,-0.357,-0.3587,-0.3692,-0.3621,-0.363,-0.3607,-0.3661,-0.3654,-0.3645,-0.3592,-0.358,-0.3626,-0.3533,-0.3522,-0.35,-0.3487,-0.3469,-0.3466,-0.3435,-0.3437,-0.3438,-0.3455,0,0,0,0,0,0,-0.3565,-0.3587,-0.3623,-0.3626,-0.3635,-0.3707,-0.3663,-0.3655,-0.3652,-0.3647,-0.3587,-0.3575,-0.3531,-0.3505,-0.3496,-0.3482,-0.3464,-0.3434,-0.3436,-0.3438,-0.3453,-0.3457,-0.346,0,0,0,0,0,-0.3559,-0.3612,-0.3626,-0.3641,-0.3691,-0.3708,-0.3705,-0.3677,-0.3654,-0.3661,-0.3618,-0.3577,-0.3512,-0.3503,-0.3493,-0.3477,-0.3433,-0.3435,-0.3438,-0.3451,-0.3456,-0.346,0,0,0,0,0,0,-0.3531,-0.3612,-0.3626,-0.3699,-0.3712,-0.3699,-0.3697,-0.3688,-0.366,-0.3645,-0.359,-0.3576,-0.3556,-0.3527,-0.352,-0.3479,-0.3466,-0.3467,-0.348,-0.3484,-0.3488,-0.3468,-0.3461,0,0,0,0,0,-0.3553,-0.3619,-0.3663,-0.3712,-0.3725,-0.3715,-0.3715,-0.3706,-0.3686,-0.3672,-0.3633,-0.3592,-0.356,-0.3532,-0.3509,-0.3482,-0.3435,-0.3469,-0.3473,-0.3476,-0.3456,-0.3397,-0.3391,-0.3447,-0.3447,-0.3447,0,0,-0.354,-0.3603,-0.3629,-0.371,-0.3709,-0.3731,-0.371,-0.3719,-0.3718,-0.3665,-0.364,-0.3611,-0.3563,-0.3534,-0.3521,-0.3502,-0.3438,-0.3479,-0.3481,-0.346,-0.3398,-0.3392,-0.3387,-0.3449,-0.3449,-0.3448,0,0,-0.3546,-0.3619,-0.3667,-0.3701,-0.3738,-0.3738,-0.375,-0.3753,-0.3735,-0.3728,-0.3682,-0.3641,-0.3607,-0.355,-0.3521,-0.3534,-0.3473,-0.3542,-0.3519,-0.3462,-0.3455,-0.3449,-0.3382,-0.3369,-0.3526,-0.3526,-0.3526,0,-0.3512,-0.3616,-0.3671,-0.3726,-0.3739,-0.3748,-0.3768,-0.3764,-0.3754,-0.372,-0.3726,-0.3638,-0.3604,-0.3529,-0.3535,-0.3534,-0.3497,-0.35,-0.3462,-0.3455,-0.3448,-0.338,-0.3366,-0.3527,-0.3527,-0.3527,-0.3527,0,-0.354,-0.3636,-0.3659,-0.3742,-0.3762,-0.3784,-0.38,-0.3795,-0.3777,-0.375,-0.3694,-0.365,-0.3586,-0.3577,-0.3555,-0.3489,-0.3477,-0.3484,-0.3441,-0.3443,-0.3372,-0.3357,-0.3529,-0.3529,-0.3528,-0.3528,0,0,-0.3404,-0.3636,-0.3636,-0.3701,-0.3775,-0.3784,-0.3792,-0.3775,-0.374,-0.3725,-0.3664,-0.3612,-0.3576,-0.3542,-0.3508,-0.3449,-0.3376,-0.3448,-0.3444,-0.3363,-0.3241,-0.3005,-0.2965,-0.3381,-0.3378,-0.3376,-0.3209,0,-0.3385,-0.3529,-0.3624,-0.3697,-0.376,-0.3789,-0.3786,-0.3769,-0.3741,-0.3691,-0.3624,-0.3569,-0.3568,-0.3531,-0.3478,-0.3422,-0.3339,-0.342,-0.3266,-0.326,-0.3035,-0.294,-0.2714,-0.2525,-0.3194,-0.3192,-0.319,0,-0.3342,-0.3469,-0.3572,-0.3715,-0.3726,-0.375,-0.3721,-0.3726,-0.3667,-0.364,-0.3576,-0.3539,-0.3459,-0.3465,-0.3332,-0.3391,-0.3306,-0.3249,-0.3242,-0.2996,-0.2994,-0.2634,-0.2472,-0.2492,-0.3166,-0.3168,-0.317,0,-0.321,-0.3401,-0.3492,-0.3541,-0.3694,-0.3696,-0.3718,-0.3685,-0.3674,-0.36,-0.3579,-0.3484,-0.3443,-0.335,-0.3234,-0.3294,-0.3064,-0.3135,-0.2823,-0.2808,-0.2564,-0.2528,-0.2376,-0.2988,-0.2988,-0.2989,-0.2989,0,-0.3151,-0.322,-0.3452,-0.3502,-0.3552,-0.3641,-0.3626,-0.3629,-0.3616,-0.3525,-0.3548,-0.3432,-0.3416,-0.3287,-0.3197,-0.2927,-0.3027,-0.2765,-0.2722,-0.2563,-0.2531,-0.2497,-0.261,-0.2983,-0.2984,-0.2985,-0.2986,0,-0.3022,-0.3176,-0.3307,-0.3482,-0.3521,-0.3546,-0.3631,-0.3593,-0.361,-0.3502,-0.3482,-0.3416,-0.3196,-0.3125,-0.2931,-0.2841,-0.2551,-0.2498,-0.2297,-0.2228,-0.1963,-0.2086,-0.1872,-0.1827,-0.215,-0.2142,-0.2136,0,-0.2982,-0.3061,-0.3275,-0.3322,-0.3413,-0.3479,-0.3485,-0.3561,-0.3515,-0.34,-0.3311,-0.314,-0.2824,-0.2513,-0.2329,-0.2079,-0.2199,-0.1783,-0.1829,-0.1845,-0.1956,-0.2074,-0.2067,-0.154,-0.153,-0.1521,-0.1514,0,-0.2918,-0.3002,-0.3104,-0.3204,-0.3259,-0.3293,-0.3309,-0.3262,-0.3231,-0.3134,-0.2799,-0.2535,-0.2229,-0.1745,-0.1526,-0.1459,-0.1739,-0.1592,-0.1665,-0.1469,-0.1533,-0.1502,-0.1789,-0.1437,-0.1445,-0.1451,-0.1455,-0.1458,-0.2826,-0.2877,-0.2977,-0.3035,-0.3077,-0.2951,-0.2808,-0.277,-0.2579,-0.221,-0.2187,-0.1667,-0.1233,-0.0825,-0.0879,-0.086,-0.1086,-0.0837,-0.0988,-0.1108,-0.1032,-0.1114,-0.068,-0.0683,-0.0686,-0.0689,-0.0691,0,-0.2652,-0.2705,-0.2776,-0.2748,-0.2613,-0.2726,-0.2554,-0.23,-0.1883,-0.1623,-0.1235,-0.0556,-0.0104,-0.0063,0.005,-0.0141,-0.0402,-0.0366,-0.0546,-0.0574,-0.0645,-0.0582,-0.0035,-0.0035,-0.0035,-0.0035,-0.0035,-0.0035,-0.2539,-0.2525,-0.2557,-0.226,-0.2195,-0.1847,-0.1642,-0.1343,-0.1081,-0.0451,-0.0064,0.0151,0.0359,0.0496,0.0308,0.0097,-0.0185,-0.0222,-0.0432,-0.0569,-0.063,-0.0687,-0.065,-0.0127,-0.0127,-0.0242,-0.0243,-0.0244]},{"header":{"parameterUnit":"m.s-1","parameterCategory":2,"la1":30.2991,"la2":30.254,"lo1":-89.0895,"lo2":-89.0444,"dy":0.0017,"dx":0.0017,"nx":28,"ny":28,"refTime":"2023-07-30T03:00:00:Z","depth":"0","parameterNumber":3,"parameterNumberName":"V-component_of_CURRENTS"},"data":[0,0,0,0,0,0,0,0,0,0,0,0,0,0,0,0,0,0,0,0,0,0,0,0,0,0,0,0,0,0,0,0,0,0,0,0,0,0,0,0,0,0,0,0,0,0,0,0,0,0,0,0,0,0,0,0,0,0,-0.1157,-0.1155,0,-0.1056,-0.1056,-0.1055,-0.0957,-0.0955,-0.0953,-0.0951,-0.0814,-0.0813,-0.0811,0,0,0,0,0,0,0,0,0,0,0,0,0,-0.1168,-0.117,-0.1157,-0.1155,-0.1153,-0.1056,-0.1056,-0.1055,-0.0957,-0.0955,-0.0953,-0.0951,-0.0815,-0.0813,-0.0811,0,0,0,0,0,0,0,0,0,0,0,0,0,-0.1132,-0.117,-0.1157,-0.1087,-0.108,-0.1057,-0.1056,-0.1055,-0.0958,-0.0955,-0.0952,-0.0949,-0.0816,-0.0813,-0.081,-0.0851,0,0,-0.0802,-0.0801,0,0,0,0,0,0,0,0,-0.1135,-0.1133,-0.11,-0.1092,-0.1083,-0.101,-0.1009,-0.0982,-0.0959,-0.1012,-0.0951,-0.0948,-0.0874,-0.0866,-0.0864,-0.0844,-0.0839,-0.0802,-0.08,-0.0799,-0.0798,0,0,0,0,0,0,0,-0.1137,-0.1136,-0.1124,-0.1098,-0.1088,-0.1028,-0.1021,-0.1004,-0.0965,-0.1007,-0.0998,-0.0976,-0.087,-0.0868,-0.086,-0.0837,-0.0802,-0.0799,-0.0798,-0.0796,-0.0715,-0.0715,0,0,0,0,0,0,-0.1144,-0.114,-0.1127,-0.112,-0.1094,-0.103,-0.1023,-0.1042,-0.0966,-0.0949,-0.0979,-0.0972,-0.0874,-0.0864,-0.0855,-0.0829,-0.0799,-0.0796,-0.0795,-0.0716,-0.0715,-0.0715,0,0,0,0,0,0,-0.1146,-0.1146,-0.1131,-0.1119,-0.1112,-0.1033,-0.1055,-0.1042,-0.1026,-0.0943,-0.0927,-0.0974,-0.0871,-0.0859,-0.0817,-0.0825,-0.0795,-0.0792,-0.0716,-0.0716,-0.0715,-0.0821,0,0,0,0,0,0,-0.1148,-0.1149,-0.1167,-0.1121,-0.1112,-0.1111,-0.1057,-0.1041,-0.1014,-0.1005,-0.0935,-0.092,-0.0868,-0.0822,-0.0815,-0.0821,-0.079,-0.0717,-0.0716,-0.0715,-0.0818,-0.0824,-0.0829,0,0,0,0,0,-0.1149,-0.1198,-0.117,-0.1166,-0.1142,-0.1111,-0.1102,-0.1039,-0.1017,-0.1016,-0.0959,-0.0921,-0.081,-0.0821,-0.0812,-0.0817,-0.0717,-0.0716,-0.0715,-0.0816,-0.0823,-0.0829,0,0,0,0,0,0,-0.1216,-0.119,-0.1158,-0.1197,-0.1146,-0.1091,-0.109,-0.1052,-0.1013,-0.1005,-0.0931,-0.0913,-0.0873,-0.0832,-0.0846,-0.0785,-0.0752,-0.075,-0.0831,-0.0838,-0.0843,-0.0891,-0.0788,0,0,0,0,0,-0.1239,-0.1267,-0.1211,-0.1236,-0.122,-0.1159,-0.114,-0.1098,-0.1052,-0.1033,-0.0977,-0.0917,-0.0869,-0.0843,-0.0793,-0.0782,-0.0735,-0.077,-0.0776,-0.0781,-0.0811,-0.0776,-0.0783,-0.0711,-0.0711,-0.0711,0,0,-0.1262,-0.1257,-0.1265,-0.1249,-0.1214,-0.1209,-0.1143,-0.1125,-0.1113,-0.1027,-0.1004,-0.094,-0.0867,-0.0835,-0.0814,-0.08,-0.076,-0.078,-0.0785,-0.0812,-0.0776,-0.0784,-0.079,-0.071,-0.071,-0.0711,0,0,-0.1327,-0.1328,-0.1362,-0.1344,-0.1299,-0.1253,-0.1251,-0.1193,-0.1159,-0.1129,-0.1054,-0.1001,-0.0934,-0.088,-0.0846,-0.0859,-0.079,-0.0828,-0.0903,-0.087,-0.0876,-0.0882,-0.077,-0.0765,-0.0834,-0.0834,-0.0834,0,-0.1345,-0.1403,-0.136,-0.1392,-0.1383,-0.1281,-0.1303,-0.1262,-0.1191,-0.1173,-0.1127,-0.1025,-0.096,-0.0925,-0.0917,-0.0877,-0.0822,-0.0891,-0.0882,-0.0887,-0.0891,-0.0775,-0.0769,-0.0839,-0.0838,-0.0838,-0.0837,0,-0.1422,-0.1475,-0.1499,-0.1502,-0.1481,-0.1491,-0.1416,-0.1384,-0.1324,-0.1273,-0.1218,-0.1127,-0.1068,-0.1026,-0.098,-0.0969,-0.0903,-0.0895,-0.0879,-0.0905,-0.0779,-0.0771,-0.0846,-0.0844,-0.0843,-0.0841,0,0,-0.1459,-0.1535,-0.1547,-0.1577,-0.155,-0.1535,-0.152,-0.147,-0.1452,-0.1375,-0.1357,-0.1268,-0.1213,-0.1172,-0.1093,-0.1062,-0.1013,-0.1004,-0.1,-0.0916,-0.0883,-0.0777,-0.0755,-0.1014,-0.1015,-0.1015,-0.0762,0,-0.1525,-0.1625,-0.1636,-0.1699,-0.1736,-0.167,-0.1658,-0.16,-0.1524,-0.1475,-0.1384,-0.133,-0.1268,-0.1231,-0.1197,-0.106,-0.1005,-0.1079,-0.0851,-0.0843,-0.0766,-0.0749,-0.0628,-0.039,-0.0753,-0.0752,-0.0751,0,-0.1604,-0.1661,-0.1754,-0.181,-0.1814,-0.1825,-0.1776,-0.1755,-0.1666,-0.1612,-0.1556,-0.1464,-0.1388,-0.1336,-0.1154,-0.1205,-0.1068,-0.0959,-0.0946,-0.0819,-0.0724,-0.0431,-0.036,-0.0267,-0.0736,-0.0738,-0.0739,0,-0.1642,-0.1751,-0.1826,-0.185,-0.1876,-0.1894,-0.1879,-0.1805,-0.1766,-0.1702,-0.1649,-0.1562,-0.1462,-0.1354,-0.1111,-0.1144,-0.0883,-0.0891,-0.0653,-0.0639,-0.0479,-0.0452,-0.032,-0.0781,-0.0781,-0.0782,-0.0783,0,-0.1725,-0.1797,-0.1862,-0.1901,-0.1972,-0.196,-0.1972,-0.1946,-0.1869,-0.1759,-0.1731,-0.159,-0.1468,-0.128,-0.1127,-0.0833,-0.0885,-0.066,-0.0586,-0.0501,-0.048,-0.0347,-0.0344,-0.0772,-0.0775,-0.0776,-0.0778,0,-0.1788,-0.1833,-0.1932,-0.1985,-0.2006,-0.2054,-0.2041,-0.1986,-0.1952,-0.1804,-0.1779,-0.1597,-0.1336,-0.1175,-0.0909,-0.0788,-0.0458,-0.0446,-0.0314,-0.0233,0.0015,0.0008,0.0209,0.0318,-0.0175,-0.0171,-0.0168,0,-0.1835,-0.1898,-0.1988,-0.2007,-0.2047,-0.2095,-0.2058,-0.2037,-0.1905,-0.1723,-0.158,-0.138,-0.106,-0.0693,-0.0518,-0.0251,-0.0207,0.0009,-0.0065,0.0049,0.0097,0.0068,0.0141,0.0156,0.0162,0.0167,0.017,0,-0.1916,-0.1948,-0.1997,-0.2023,-0.203,-0.1991,-0.1911,-0.1822,-0.1658,-0.1508,-0.112,-0.0897,-0.0596,-0.0235,-0.0029,0.0113,0.0093,0.0112,0.0183,0.0318,0.0343,0.0479,0.0015,0.0211,0.0207,0.0204,0.0202,0.02,-0.1939,-0.1991,-0.1993,-0.2003,-0.1954,-0.1734,-0.1583,-0.1397,-0.1139,-0.0718,-0.0612,-0.014,0.001,0.0321,0.0413,0.0554,0.0462,0.0656,0.0639,0.0599,0.0677,0.0327,0.061,0.0609,0.0607,0.0606,0.0605,0,-0.1892,-0.1913,-0.1933,-0.1818,-0.1592,-0.1619,-0.1321,-0.1043,-0.0586,-0.0269,0.0145,0.0654,0.0864,0.0893,0.0951,0.1064,0.1048,0.1124,0.1098,0.1147,0.083,0.0814,0.1211,0.1211,0.121,0.121,0.121,0.121,-0.1842,-0.1836,-0.1824,-0.1444,-0.1291,-0.0859,-0.061,-0.0265,0.0062,0.0682,0.1114,0.1372,0.1382,0.1263,0.1341,0.1388,0.1466,0.1503,0.1508,0.1256,0.1209,0.1164,0.115,0.161,0.161,0.1873,0.1875,0.1877]}],[{"header":{"parameterUnit":"m.s-1","parameterCategory":2,"la1":30.2991,"la2":30.254,"lo1":-89.0895,"lo2":-89.0444,"dy":0.0017,"dx":0.0017,"nx":28,"ny":28,"refTime":"2023-07-30T03:00:00:Z","depth":"2","parameterNumber":2,"parameterNumberName":"U-component_of_CURRENTS"},"data":[0,0,0,0,0,0,0,0,0,0,0,0,0,0,0,0,0,0,0,0,0,0,0,0,0,0,0,0,0,0,0,0,0,0,0,0,0,0,0,0,0,0,0,0,0,0,0,0,0,0,0,0,0,0,0,0,0,0,-0.2082,-0.2083,0,-0.2123,-0.2123,-0.2123,-0.2174,-0.2175,-0.2176,-0.2177,-0.2255,-0.2257,-0.2258,0,0,0,0,0,0,0,0,0,0,0,0,0,-0.2004,-0.2005,-0.2082,-0.2083,-0.2083,-0.2122,-0.2123,-0.2124,-0.2174,-0.2175,-0.2176,-0.2177,-0.2255,-0.2256,-0.2258,0,0,0,0,0,0,0,0,0,0,0,0,0,-0.204,-0.2006,-0.2082,-0.2113,-0.2117,-0.2122,-0.2123,-0.2124,-0.2174,-0.2175,-0.2177,-0.2178,-0.2254,-0.2256,-0.2258,-0.2245,0,0,-0.2264,-0.2265,0,0,0,0,0,0,0,0,-0.2038,-0.2043,-0.2108,-0.2111,-0.2115,-0.2145,-0.2124,-0.2166,-0.2174,-0.2152,-0.2177,-0.2178,-0.2221,-0.2226,-0.223,-0.2249,-0.2252,-0.2264,-0.2266,-0.2266,-0.2267,0,0,0,0,0,0,0,-0.2036,-0.2041,-0.2098,-0.2109,-0.2113,-0.211,-0.2117,-0.2132,-0.218,-0.2154,-0.2158,-0.2162,-0.2223,-0.2228,-0.2232,-0.2254,-0.2264,-0.2266,-0.2267,-0.2268,-0.2216,-0.2213,0,0,0,0,0,0,-0.2032,-0.2039,-0.2097,-0.2099,-0.2079,-0.211,-0.2118,-0.2134,-0.2179,-0.2187,-0.2161,-0.2164,-0.2224,-0.223,-0.2235,-0.2217,-0.2266,-0.2268,-0.2269,-0.2218,-0.2215,-0.2212,0,0,0,0,0,0,-0.2031,-0.2037,-0.2095,-0.2069,-0.2077,-0.2111,-0.2128,-0.2134,-0.2159,-0.2184,-0.2193,-0.2182,-0.2225,-0.2232,-0.2217,-0.2221,-0.2269,-0.2271,-0.2221,-0.2217,-0.2214,-0.2186,0,0,0,0,0,0,-0.2028,-0.2037,-0.2049,-0.207,-0.2078,-0.2081,-0.2127,-0.2134,-0.2159,-0.2164,-0.2204,-0.2212,-0.2227,-0.2213,-0.2219,-0.2225,-0.2272,-0.2225,-0.2219,-0.2215,-0.219,-0.2181,-0.2174,0,0,0,0,0,-0.2025,-0.2025,-0.2049,-0.2056,-0.2094,-0.208,-0.2082,-0.2111,-0.2158,-0.2145,-0.216,-0.2211,-0.2187,-0.2212,-0.2219,-0.2227,-0.2227,-0.2221,-0.2215,-0.2193,-0.2183,-0.2174,0,0,0,0,0,0,-0.2001,-0.2031,-0.2058,-0.2071,-0.2071,-0.2088,-0.2083,-0.2119,-0.2125,-0.2144,-0.2178,-0.2183,-0.2163,-0.2185,-0.2213,-0.2188,-0.2216,-0.2212,-0.2197,-0.2188,-0.218,-0.2229,-0.2274,0,0,0,0,0,-0.2001,-0.2004,-0.203,-0.2034,-0.2038,-0.207,-0.2076,-0.21,-0.2109,-0.2117,-0.213,-0.2145,-0.2141,-0.2158,-0.2141,-0.2145,-0.2156,-0.2148,-0.214,-0.2134,-0.2172,-0.2185,-0.2184,-0.2193,-0.2193,-0.2193,0,0,-0.1991,-0.2007,-0.2011,-0.2027,-0.2037,-0.2041,-0.2075,-0.2082,-0.2097,-0.2123,-0.2124,-0.2109,-0.2125,-0.2103,-0.2102,-0.2134,-0.2114,-0.2127,-0.2122,-0.2164,-0.2179,-0.2179,-0.2179,-0.2189,-0.219,-0.2191,0,0,-0.196,-0.1988,-0.1982,-0.1984,-0.2001,-0.2019,-0.2026,-0.2042,-0.2058,-0.2048,-0.2064,-0.2052,-0.2048,-0.2059,-0.2071,-0.2014,-0.2054,-0.2003,-0.2038,-0.2048,-0.205,-0.2051,-0.1983,-0.1979,-0.2024,-0.2024,-0.2024,0,-0.1953,-0.1965,-0.1972,-0.1969,-0.1986,-0.2015,-0.2027,-0.2034,-0.2038,-0.2058,-0.204,-0.2036,-0.2036,-0.206,-0.2027,-0.2007,-0.1993,-0.2081,-0.2044,-0.2047,-0.2049,-0.198,-0.1976,-0.2022,-0.2022,-0.2022,-0.2023,0,-0.192,-0.194,-0.1929,-0.1951,-0.1957,-0.1963,-0.1988,-0.1994,-0.2019,-0.2035,-0.2032,-0.2005,-0.2026,-0.2,-0.2005,-0.2021,-0.1991,-0.2017,-0.2085,-0.2048,-0.1974,-0.1971,-0.2019,-0.202,-0.202,-0.2021,0,0,-0.1884,-0.1912,-0.1909,-0.1937,-0.1965,-0.1969,-0.1992,-0.2027,-0.2063,-0.2039,-0.2071,-0.2042,-0.2048,-0.2059,-0.2052,-0.2062,-0.2018,-0.2055,-0.2057,-0.2015,-0.1985,-0.1881,-0.1867,-0.2049,-0.205,-0.2051,-0.1899,0,-0.1869,-0.188,-0.19,-0.1923,-0.1943,-0.1986,-0.2004,-0.2039,-0.2056,-0.2067,-0.2078,-0.2075,-0.2068,-0.2068,-0.208,-0.2032,-0.2022,-0.2054,-0.2006,-0.2004,-0.1941,-0.1866,-0.1738,-0.1589,-0.1896,-0.1896,-0.1895,0,-0.183,-0.1858,-0.1883,-0.1951,-0.1963,-0.1977,-0.2046,-0.2067,-0.2103,-0.2115,-0.2142,-0.2135,-0.2135,-0.2127,-0.2081,-0.2102,-0.2055,-0.2014,-0.2009,-0.1942,-0.1898,-0.1688,-0.1572,-0.189,-0.1891,-0.1891,-0.1891,0,-0.1802,-0.1845,-0.1878,-0.1894,-0.1961,-0.1992,-0.2032,-0.208,-0.2098,-0.2146,-0.2155,-0.2168,-0.2144,-0.2129,-0.2047,-0.2069,-0.1969,-0.1988,-0.1845,-0.1833,-0.1734,-0.1713,-0.1974,-0.1974,-0.1975,-0.1975,-0.1976,0,-0.1782,-0.1804,-0.1866,-0.1883,-0.1926,-0.1982,-0.2023,-0.2069,-0.2107,-0.2119,-0.2177,-0.2171,-0.2151,-0.2093,-0.2044,-0.1908,-0.1968,-0.1838,-0.1802,-0.1705,-0.1684,-0.1985,-0.1988,-0.1969,-0.1971,-0.1972,-0.1973,0,-0.1728,-0.1774,-0.1806,-0.1883,-0.1907,-0.193,-0.1996,-0.2012,-0.2082,-0.2095,-0.2108,-0.2134,-0.2054,-0.1998,-0.1914,-0.1864,-0.1772,-0.1719,-0.156,-0.1511,-0.162,-0.1623,-0.1533,-0.1528,-0.1524,-0.1521,-0.1518,0,-0.1704,-0.1713,-0.1777,-0.1782,-0.1812,-0.1861,-0.1883,-0.1975,-0.1975,-0.2063,-0.2039,-0.2006,-0.1956,-0.1781,-0.1653,-0.1506,-0.1621,-0.1338,-0.138,-0.1608,-0.1583,-0.1592,-0.16,-0.1189,-0.1184,-0.1179,-0.1176,0,-0.1648,-0.1658,-0.1682,-0.1684,-0.1705,-0.1724,-0.1758,-0.1772,-0.1867,-0.1898,-0.1889,-0.1875,-0.1726,-0.1528,-0.1363,-0.1266,-0.1353,-0.1245,-0.1533,-0.1335,-0.1276,-0.1254,-0.1275,-0.1138,-0.1142,-0.1145,-0.1147,-0.1148,-0.1581,-0.1564,-0.1565,-0.1554,-0.157,-0.1544,-0.1518,-0.1562,-0.1571,-0.1562,-0.1662,-0.1584,-0.1555,-0.12,-0.1084,-0.0939,-0.1048,-0.1017,-0.1033,-0.1054,-0.1055,-0.0996,-0.0799,-0.0801,-0.0802,-0.0804,-0.0805,0,-0.1481,-0.1454,-0.1429,-0.1392,-0.1317,-0.1388,-0.1382,-0.132,-0.1286,-0.1314,-0.129,-0.1139,-0.1028,-0.0966,-0.0709,-0.0658,-0.066,-0.0605,-0.0665,-0.0701,-0.0734,-0.0725,-0.0378,-0.0377,-0.0375,-0.0375,0,0,-0.1425,-0.1348,-0.1315,-0.1133,-0.1103,-0.0975,-0.0947,-0.092,-0.0891,-0.0834,-0.0798,-0.0888,-0.0942,-0.0692,-0.0621,-0.0477,-0.0567,-0.0396,-0.0736,-0.0842,-0.0874,-0.096,-0.0983,0,0,0,0,0]},{"header":{"parameterUnit":"m.s-1","parameterCategory":2,"la1":30.2991,"la2":30.254,"lo1":-89.0895,"lo2":-89.0444,"dy":0.0017,"dx":0.0017,"nx":28,"ny":28,"refTime":"2023-07-30T03:00:00:Z","depth":"2","parameterNumber":3,"parameterNumberName":"V-component_of_CURRENTS"},"data":[0,0,0,0,0,0,0,0,0,0,0,0,0,0,0,0,0,0,0,0,0,0,0,0,0,0,0,0,0,0,0,0,0,0,0,0,0,0,0,0,0,0,0,0,0,0,0,0,0,0,0,0,0,0,0,0,0,0,-0.0317,-0.0316,0,-0.0229,-0.0228,-0.0227,-0.0174,-0.0174,-0.0174,-0.0174,-0.0028,-0.0025,-0.0021,0,0,0,0,0,0,0,0,0,0,0,0,0,-0.0379,-0.0379,-0.0317,-0.0316,-0.0315,-0.0229,-0.0228,-0.0227,-0.0174,-0.0174,-0.0174,-0.0174,-0.003,-0.0025,-0.0021,0,0,0,0,0,0,0,0,0,0,0,0,0,-0.0328,-0.0379,-0.0317,-0.0279,-0.0275,-0.023,-0.0228,-0.0226,-0.0174,-0.0174,-0.0174,-0.0173,-0.0031,-0.0026,-0.002,0.0008,0,0,-0.0003,-0.0001,0,0,0,0,0,0,0,0,-0.0331,-0.0325,-0.0286,-0.0282,-0.0277,-0.0213,-0.0197,-0.0145,-0.0174,-0.0212,-0.0174,-0.0173,-0.0085,-0.0075,-0.0059,0.0015,0.0021,-0.0003,0.0,0.0003,0.0004,0,0,0,0,0,0,0,-0.0334,-0.0328,-0.0282,-0.0285,-0.0279,-0.0245,-0.0238,-0.0187,-0.015,-0.0208,-0.0205,-0.0196,-0.0082,-0.0065,-0.0056,0.0023,-0.0003,0.0002,0.0005,0.0007,0.0116,0.0115,0,0,0,0,0,0,-0.035,-0.0332,-0.0285,-0.0279,-0.0304,-0.0245,-0.0237,-0.0233,-0.0151,-0.0139,-0.0196,-0.0194,-0.0075,-0.0062,-0.005,-0.0022,0.0003,0.0008,0.0011,0.0116,0.0116,0.0115,0,0,0,0,0,0,-0.0352,-0.0347,-0.0288,-0.0304,-0.0294,-0.0245,-0.0241,-0.0232,-0.0213,-0.0143,-0.0129,-0.0187,-0.0074,-0.0058,-0.0022,-0.0016,0.001,0.0015,0.0117,0.0116,0.0115,0.0041,0,0,0,0,0,0,-0.0354,-0.0348,-0.0354,-0.0305,-0.0294,-0.0267,-0.0241,-0.023,-0.0208,-0.0204,-0.013,-0.0116,-0.0072,-0.0031,-0.0017,-0.0008,0.002,0.0117,0.0116,0.0116,0.0044,0.0038,0.0032,0,0,0,0,0,-0.0357,-0.0363,-0.0356,-0.035,-0.0303,-0.0267,-0.0258,-0.0221,-0.0208,-0.0203,-0.0165,-0.0119,-0.0025,-0.0027,-0.001,0.0001,0.0118,0.0117,0.0116,0.0046,0.0039,0.0033,0,0,0,0,0,0,-0.0393,-0.0357,-0.0348,-0.0344,-0.0313,-0.0259,-0.025,-0.0225,-0.0191,-0.0188,-0.0125,-0.011,-0.0083,-0.0031,-0.0035,0.0028,0.0055,0.0057,-0.0003,-0.001,-0.0015,-0.0013,0.0024,0,0,0,0,0,-0.0407,-0.0403,-0.0362,-0.036,-0.0347,-0.0301,-0.0283,-0.0258,-0.0219,-0.0203,-0.0155,-0.0106,-0.0073,-0.0036,-0.0002,0.0044,0.0088,0.0062,0.0056,0.0051,0.0063,0.0123,0.0124,0.0112,0.0112,0.0112,0,0,-0.0422,-0.0401,-0.04,-0.0368,-0.0341,-0.0323,-0.0289,-0.0265,-0.0249,-0.0192,-0.0161,-0.0133,-0.0072,-0.004,-0.0019,0.0009,0.0072,0.005,0.0045,0.0061,0.0122,0.0124,0.0125,0.0111,0.0111,0.0112,0,0,-0.0441,-0.0432,-0.043,-0.0408,-0.0372,-0.0344,-0.034,-0.0291,-0.0269,-0.0239,-0.0207,-0.0175,-0.0106,-0.0065,-0.0034,-0.0044,0.0022,-0.0033,-0.0033,0.0024,0.0026,0.0028,0.006,0.0066,-0.0014,-0.0014,-0.0014,0,-0.0459,-0.0456,-0.0425,-0.0413,-0.0402,-0.0357,-0.0351,-0.0319,-0.0268,-0.0249,-0.0239,-0.016,-0.0114,-0.0066,-0.0074,-0.0054,-0.002,-0.0014,0.0017,0.002,0.0024,0.0057,0.0065,-0.0018,-0.0017,-0.0017,-0.0017,0,-0.0471,-0.0472,-0.0468,-0.0444,-0.0426,-0.0416,-0.0372,-0.0352,-0.0324,-0.0288,-0.0249,-0.0197,-0.0141,-0.0128,-0.0099,-0.0052,-0.004,-0.0017,0.0033,0.0021,0.0056,0.0065,-0.0023,-0.0022,-0.0021,-0.002,0,0,-0.0502,-0.0483,-0.0483,-0.0486,-0.0446,-0.0435,-0.0409,-0.0371,-0.0351,-0.0303,-0.0268,-0.0218,-0.0186,-0.0149,-0.011,-0.0053,-0.0013,-0.0022,-0.0017,0.0008,0.0097,0.0124,0.0136,0.0016,0.0018,0.0019,0.0101,0,-0.0522,-0.0531,-0.0505,-0.0513,-0.0517,-0.0472,-0.0452,-0.0412,-0.0368,-0.0322,-0.0257,-0.0216,-0.0192,-0.0168,-0.0111,-0.0037,0.0012,-0.0039,0.0109,0.0113,0.0137,0.0149,0.0138,0.0213,0.0111,0.0112,0.0113,0,-0.0539,-0.0549,-0.0569,-0.0561,-0.0556,-0.0549,-0.0515,-0.0489,-0.0409,-0.037,-0.0307,-0.025,-0.0168,-0.0147,-0.0015,-0.0049,0.0017,0.0075,0.008,0.0146,0.0158,0.0215,0.0234,0.0129,0.0128,0.0127,0.0126,0,-0.0594,-0.059,-0.0618,-0.0616,-0.0595,-0.0593,-0.0575,-0.0511,-0.0483,-0.0396,-0.0347,-0.0258,-0.019,-0.01,0.0018,0.0007,0.0166,0.0169,0.0251,0.0252,0.0295,0.0298,0.0263,0.0263,0.0263,0.0262,0.0262,0,-0.0632,-0.0651,-0.0651,-0.067,-0.0695,-0.0653,-0.0651,-0.061,-0.0534,-0.0491,-0.0379,-0.0302,-0.0169,-0.0058,0.0024,0.0171,0.0174,0.026,0.0287,0.0265,0.0264,0.024,0.0236,0.0265,0.0265,0.0264,0.0264,0,-0.0689,-0.0687,-0.0725,-0.0727,-0.0727,-0.075,-0.0713,-0.07,-0.0608,-0.054,-0.0507,-0.0324,-0.0164,-0.0038,0.0127,0.0194,0.0314,0.0361,0.0313,0.0334,0.0354,0.0346,0.0463,0.0465,0.0466,0.0468,0.0469,0,-0.072,-0.0747,-0.0785,-0.0817,-0.0823,-0.0837,-0.0838,-0.0762,-0.0734,-0.0546,-0.0513,-0.0314,-0.0155,0.0102,0.0243,0.0396,0.0379,0.0461,0.0446,0.0366,0.0381,0.0369,0.0359,0.0459,0.046,0.046,0.0461,0,-0.0783,-0.08,-0.0839,-0.0906,-0.0932,-0.0948,-0.0936,-0.0921,-0.0807,-0.0703,-0.051,-0.0348,-0.0045,0.0171,0.0368,0.0442,0.0433,0.0483,0.0442,0.0407,0.0369,0.0381,0.0369,0.0468,0.0467,0.0467,0.0466,0.0466,-0.0834,-0.0883,-0.0936,-0.0992,-0.1024,-0.1045,-0.1055,-0.1006,-0.0936,-0.0749,-0.0574,-0.0286,-0.0053,0.0273,0.0409,0.0533,0.0534,0.0547,0.0542,0.0537,0.0519,0.0486,0.0602,0.0602,0.0602,0.0602,0.0602,0,-0.0894,-0.0941,-0.1009,-0.1079,-0.1114,-0.111,-0.1102,-0.1072,-0.099,-0.0764,-0.0559,-0.0268,0.0012,0.0261,0.0491,0.0609,0.0576,0.0602,0.0546,0.054,0.0534,0.0513,0.0596,0.0597,0.0597,0.0597,0,0,-0.0933,-0.1011,-0.1043,-0.113,-0.1168,-0.1192,-0.1186,-0.1121,-0.0969,-0.0743,-0.0507,-0.0256,0.0078,0.0205,0.0367,0.051,0.0475,0.05,0.0496,0.0404,0.0396,0.0501,0.0463,0,0,0,0,0]}],[{"header":{"parameterUnit":"m.s-1","parameterCategory":2,"la1":30.2991,"la2":30.254,"lo1":-89.0895,"lo2":-89.0444,"dy":0.0017,"dx":0.0017,"nx":28,"ny":28,"refTime":"2023-07-30T03:00:00:Z","depth":"4","parameterNumber":2,"parameterNumberName":"U-component_of_CURRENTS"},"data":[0,0,0,0,0,0,0,0,0,0,0,0,0,0,0,0,0,0,0,0,0,0,0,0,0,0,0,0,0,0,0,0,0,0,0,0,0,0,0,0,0,0,0,0,0,0,0,0,0,0,0,0,0,0,0,0,0,0,-0.1362,-0.1363,0,-0.1375,-0.1375,-0.1375,-0.1405,-0.1406,-0.1407,-0.1407,-0.1453,-0.1453,-0.1453,0,0,0,0,0,0,0,0,0,0,0,0,0,-0.1342,-0.1342,-0.1362,-0.1363,-0.1363,-0.1375,-0.1375,-0.1375,-0.1405,-0.1406,-0.1407,-0.1408,-0.1452,-0.1453,-0.1453,0,0,0,0,0,0,0,0,0,0,0,0,0,-0.1349,-0.1342,-0.1362,-0.1382,-0.1384,-0.1375,-0.1375,-0.1374,-0.1404,-0.1406,-0.1407,-0.1408,-0.1452,-0.1453,-0.1453,-0.1428,0,0,-0.1455,-0.1455,0,0,0,0,0,0,0,0,-0.1349,-0.135,-0.1379,-0.1381,-0.1383,-0.1393,-0.1384,-0.1395,-0.1404,-0.1393,-0.1408,-0.1409,-0.1437,-0.1438,-0.1432,-0.143,-0.1432,-0.1455,-0.1455,-0.1455,-0.1455,0,0,0,0,0,0,0,-0.1348,-0.1349,-0.1364,-0.1379,-0.1382,-0.1383,-0.1385,-0.1386,-0.1405,-0.1394,-0.1397,-0.1403,-0.1438,-0.1432,-0.1434,-0.1433,-0.1455,-0.1455,-0.1456,-0.1456,-0.1476,-0.1476,0,0,0,0,0,0,-0.1353,-0.1349,-0.1364,-0.1365,-0.1373,-0.1383,-0.1385,-0.1385,-0.1404,-0.1409,-0.1402,-0.1405,-0.143,-0.1433,-0.1436,-0.1488,-0.1455,-0.1456,-0.1456,-0.1475,-0.1476,-0.1476,0,0,0,0,0,0,-0.1352,-0.1354,-0.1363,-0.136,-0.1362,-0.1382,-0.1382,-0.1385,-0.1409,-0.1411,-0.1416,-0.1427,-0.1432,-0.1435,-0.1453,-0.1487,-0.1456,-0.1456,-0.1475,-0.1475,-0.1476,-0.1541,0,0,0,0,0,0,-0.1352,-0.1353,-0.1363,-0.136,-0.1362,-0.1371,-0.1381,-0.1384,-0.141,-0.1415,-0.1433,-0.1437,-0.1433,-0.1452,-0.1453,-0.1487,-0.1457,-0.1475,-0.1475,-0.1476,-0.1539,-0.1544,-0.1548,0,0,0,0,0,-0.1351,-0.1354,-0.1363,-0.1366,-0.1372,-0.1372,-0.1372,-0.1389,-0.1411,-0.1417,-0.1431,-0.1438,-0.1456,-0.1453,-0.1454,-0.1489,-0.1475,-0.1475,-0.1476,-0.1537,-0.1543,-0.1548,0,0,0,0,0,0,-0.1355,-0.1357,-0.1368,-0.1374,-0.1381,-0.1378,-0.1389,-0.1403,-0.1418,-0.143,-0.1437,-0.1441,-0.147,-0.1461,-0.1457,-0.1492,-0.1468,-0.1468,-0.1514,-0.1519,-0.1524,-0.1529,-0.1457,0,0,0,0,0,-0.1359,-0.1362,-0.1367,-0.1375,-0.1379,-0.139,-0.1398,-0.1408,-0.1417,-0.1427,-0.1444,-0.1456,-0.1466,-0.148,-0.1479,-0.1498,-0.1476,-0.152,-0.1525,-0.1529,-0.1532,-0.1521,-0.1525,-0.1478,-0.1478,-0.1478,0,0,-0.1365,-0.1367,-0.1372,-0.1377,-0.1383,-0.1398,-0.1398,-0.1412,-0.1438,-0.1428,-0.1472,-0.1472,-0.1471,-0.1493,-0.1506,-0.1498,-0.1529,-0.153,-0.1534,-0.1534,-0.1522,-0.1527,-0.1531,-0.1478,-0.1478,-0.1478,0,0,-0.1371,-0.138,-0.1384,-0.1393,-0.1408,-0.1413,-0.1426,-0.1438,-0.1459,-0.1486,-0.149,-0.151,-0.1527,-0.1535,-0.1541,-0.1568,-0.155,-0.1572,-0.1611,-0.16,-0.1604,-0.1608,-0.158,-0.1581,-0.158,-0.158,-0.158,0,-0.1386,-0.1389,-0.1386,-0.1398,-0.1417,-0.1428,-0.1448,-0.1465,-0.1487,-0.1505,-0.1511,-0.1542,-0.1549,-0.1578,-0.1591,-0.1583,-0.1562,-0.1595,-0.1608,-0.1611,-0.1613,-0.1584,-0.1584,-0.1583,-0.1583,-0.1583,-0.1582,0,-0.1386,-0.1408,-0.1412,-0.1435,-0.1451,-0.1467,-0.1491,-0.1517,-0.1547,-0.1563,-0.16,-0.1601,-0.1619,-0.163,-0.1625,-0.1651,-0.1625,-0.1613,-0.1599,-0.1622,-0.1589,-0.1588,-0.1588,-0.1587,-0.1586,-0.1585,0,0,-0.1375,-0.1409,-0.1415,-0.1438,-0.1475,-0.1483,-0.1532,-0.1566,-0.1594,-0.1627,-0.1657,-0.1691,-0.169,-0.1694,-0.1691,-0.1693,-0.1698,-0.1668,-0.1666,-0.1648,-0.166,-0.1534,-0.152,-0.1689,-0.1689,-0.169,-0.1629,0,-0.1384,-0.1413,-0.1431,-0.1478,-0.1497,-0.1532,-0.157,-0.1606,-0.1635,-0.1661,-0.1683,-0.1703,-0.1716,-0.172,-0.173,-0.1699,-0.1697,-0.1714,-0.1632,-0.1629,-0.1522,-0.1515,-0.1691,-0.1627,-0.1627,-0.1626,-0.1626,0,-0.1373,-0.1399,-0.144,-0.1497,-0.1509,-0.1544,-0.1598,-0.1632,-0.1673,-0.1693,-0.1725,-0.1728,-0.1751,-0.1743,-0.173,-0.1739,-0.1709,-0.1685,-0.1682,-0.154,-0.15,-0.1598,-0.1623,-0.1623,-0.1624,-0.1624,-0.1624,0,-0.1345,-0.1403,-0.1438,-0.146,-0.1524,-0.1558,-0.1596,-0.1645,-0.1662,-0.1708,-0.171,-0.1744,-0.1742,-0.1732,-0.1704,-0.1714,-0.166,-0.1662,-0.1522,-0.1513,-0.1619,-0.1616,-0.1644,-0.1644,-0.1644,-0.1644,-0.1645,0,-0.133,-0.1364,-0.1431,-0.1453,-0.149,-0.1547,-0.1584,-0.1624,-0.1662,-0.1661,-0.1721,-0.1707,-0.1738,-0.1713,-0.1694,-0.1593,-0.1654,-0.1518,-0.1486,-0.1646,-0.1646,-0.1617,-0.1615,-0.1642,-0.1643,-0.1643,-0.1644,0,-0.1285,-0.1335,-0.1375,-0.1452,-0.1475,-0.15,-0.1561,-0.1567,-0.1631,-0.1625,-0.1636,-0.1672,-0.1631,-0.1635,-0.1597,-0.1551,-0.1486,-0.1437,-0.1594,-0.1574,-0.1348,-0.135,-0.1265,-0.126,-0.1256,-0.1253,-0.125,0,-0.1259,-0.1276,-0.1352,-0.1361,-0.1399,-0.1446,-0.1455,-0.1533,-0.153,-0.1582,-0.1551,-0.1548,-0.1551,-0.1403,-0.143,-0.1363,-0.1352,-0.1319,-0.135,-0.1331,-0.1309,-0.1318,-0.1325,-0.1243,-0.1242,-0.1241,-0.1239,0,-0.1204,-0.1238,-0.1267,-0.1276,-0.1295,-0.1305,-0.1336,-0.133,-0.1396,-0.147,-0.1424,-0.1396,-0.1335,-0.1307,-0.1256,-0.1222,-0.1344,-0.1275,-0.1284,-0.1312,-0.1302,-0.1287,-0.1299,-0.1225,-0.1227,-0.1228,-0.1229,0,-0.1153,-0.1148,-0.1168,-0.1161,-0.1172,-0.1134,-0.1187,-0.1177,-0.1193,-0.1276,-0.1255,-0.1265,-0.1314,-0.1229,-0.1189,-0.1133,-0.1117,-0.1098,-0.1116,-0.1132,-0.1116,-0.1085,-0.0901,0,0,0,0,0,-0.1089,-0.1054,-0.104,-0.1012,-0.1011,-0.1008,-0.1068,-0.1125,-0.121,-0.1137,-0.1197,-0.1142,-0.1082,-0.1099,-0.1005,-0.11,-0.1107,-0.0987,-0.1093,-0.1143,-0.116,-0.1152,0,0,0,0,0,0,-0.1039,-0.1028,-0.0996,-0.0864,-0.0816,-0.0793,-0.0829,-0.0904,-0.0886,-0.0996,-0.097,-0.1052,-0.1007,-0.1092,-0.0968,-0.0968,-0.1009,-0.1007,-0.1004,-0.1133,-0.1149,-0.1163,-0.116,0,0,0,0,0]},{"header":{"parameterUnit":"m.s-1","parameterCategory":2,"la1":30.2991,"la2":30.254,"lo1":-89.0895,"lo2":-89.0444,"dy":0.0017,"dx":0.0017,"nx":28,"ny":28,"refTime":"2023-07-30T03:00:00:Z","depth":"4","parameterNumber":3,"parameterNumberName":"V-component_of_CURRENTS"},"data":[0,0,0,0,0,0,0,0,0,0,0,0,0,0,0,0,0,0,0,0,0,0,0,0,0,0,0,0,0,0,0,0,0,0,0,0,0,0,0,0,0,0,0,0,0,0,0,0,0,0,0,0,0,0,0,0,0,0,-0.0224,-0.0224,0,-0.0198,-0.0198,-0.0198,-0.0178,-0.0178,-0.0178,-0.0177,-0.0139,-0.0138,-0.0137,0,0,0,0,0,0,0,0,0,0,0,0,0,-0.0246,-0.0246,-0.0224,-0.0224,-0.0223,-0.0198,-0.0198,-0.0197,-0.0178,-0.0178,-0.0177,-0.0177,-0.0139,-0.0138,-0.0137,0,0,0,0,0,0,0,0,0,0,0,0,0,-0.0231,-0.0246,-0.0224,-0.021,-0.0208,-0.0198,-0.0198,-0.0197,-0.0178,-0.0178,-0.0177,-0.0177,-0.0139,-0.0138,-0.0137,-0.0139,0,0,-0.0134,-0.0133,0,0,0,0,0,0,0,0,-0.0232,-0.0231,-0.0212,-0.0211,-0.0209,-0.019,-0.0191,-0.0177,-0.0178,-0.0191,-0.0177,-0.0177,-0.0154,-0.0152,-0.015,-0.0137,-0.0136,-0.0134,-0.0133,-0.0132,-0.0132,0,0,0,0,0,0,0,-0.0233,-0.0232,-0.0215,-0.0212,-0.021,-0.02,-0.0198,-0.0189,-0.0176,-0.019,-0.0188,-0.0183,-0.0153,-0.0151,-0.0149,-0.0135,-0.0134,-0.0133,-0.0132,-0.0132,-0.0131,-0.0131,0,0,0,0,0,0,-0.0235,-0.0233,-0.0216,-0.0214,-0.0218,-0.02,-0.0198,-0.0197,-0.0177,-0.0173,-0.0183,-0.0182,-0.0153,-0.015,-0.0147,-0.0136,-0.0132,-0.0131,-0.0131,-0.013,-0.0131,-0.0131,0,0,0,0,0,0,-0.0236,-0.0234,-0.0217,-0.0221,-0.0219,-0.02,-0.02,-0.0197,-0.0196,-0.0172,-0.0168,-0.0185,-0.0153,-0.0149,-0.0146,-0.0135,-0.0131,-0.013,-0.0129,-0.013,-0.0131,-0.0122,0,0,0,0,0,0,-0.0236,-0.0234,-0.0241,-0.0222,-0.0218,-0.0214,-0.02,-0.0197,-0.0192,-0.0191,-0.0172,-0.0167,-0.0152,-0.0148,-0.0145,-0.0133,-0.0129,-0.0128,-0.013,-0.0131,-0.0122,-0.0123,-0.0124,0,0,0,0,0,-0.0237,-0.0246,-0.0242,-0.024,-0.0226,-0.0214,-0.0212,-0.0198,-0.0193,-0.0195,-0.0186,-0.0168,-0.0153,-0.0148,-0.0144,-0.0132,-0.0128,-0.0129,-0.0131,-0.0121,-0.0122,-0.0123,0,0,0,0,0,0,-0.026,-0.0244,-0.0239,-0.0243,-0.0231,-0.0211,-0.0213,-0.0203,-0.0197,-0.0198,-0.0176,-0.0172,-0.0166,-0.0159,-0.0153,-0.0139,-0.0138,-0.0139,-0.0132,-0.0133,-0.0134,-0.013,-0.0128,0,0,0,0,0,-0.0268,-0.0271,-0.0251,-0.0256,-0.0251,-0.0234,-0.023,-0.022,-0.0209,-0.0206,-0.0192,-0.0181,-0.017,-0.016,-0.0155,-0.0145,-0.0124,-0.0138,-0.0139,-0.0139,-0.0136,-0.0096,-0.0092,-0.0136,-0.0136,-0.0136,0,0,-0.0279,-0.027,-0.0273,-0.0262,-0.0253,-0.0246,-0.0231,-0.0226,-0.0219,-0.0203,-0.0196,-0.0187,-0.0172,-0.0162,-0.0157,-0.0151,-0.0118,-0.0141,-0.0141,-0.0138,-0.0097,-0.0092,-0.0088,-0.0137,-0.0137,-0.0137,0,0,-0.0295,-0.0295,-0.0297,-0.0289,-0.0275,-0.0263,-0.0263,-0.0245,-0.0235,-0.023,-0.0215,-0.0198,-0.0189,-0.0164,-0.0152,-0.0158,-0.013,-0.0164,-0.0153,-0.0114,-0.0109,-0.0104,-0.0073,-0.0066,-0.0156,-0.0156,-0.0156,0,-0.0309,-0.0311,-0.0297,-0.0294,-0.0292,-0.0271,-0.0272,-0.0257,-0.0241,-0.0232,-0.023,-0.0202,-0.0184,-0.0154,-0.0154,-0.0155,-0.0137,-0.0144,-0.0112,-0.0107,-0.0102,-0.0071,-0.0063,-0.0156,-0.0156,-0.0156,-0.0156,0,-0.0317,-0.0324,-0.0326,-0.0316,-0.031,-0.0312,-0.0286,-0.0279,-0.0268,-0.0249,-0.0227,-0.0201,-0.0181,-0.017,-0.016,-0.0122,-0.0122,-0.012,-0.0101,-0.0097,-0.0065,-0.0057,-0.0156,-0.0156,-0.0156,-0.0156,0,0,-0.034,-0.0334,-0.0338,-0.0346,-0.0326,-0.0327,-0.0309,-0.0289,-0.0281,-0.0252,-0.0235,-0.0198,-0.018,-0.0167,-0.0145,-0.0104,-0.0051,-0.0099,-0.0097,-0.0055,0.003,0.0037,0.0047,-0.0043,-0.0041,-0.004,0.004,0,-0.0355,-0.0369,-0.0352,-0.0369,-0.0378,-0.0353,-0.0342,-0.0319,-0.0296,-0.0274,-0.0223,-0.0206,-0.0179,-0.0171,-0.0121,-0.0076,-0.003,-0.0073,0.0008,0.001,0.0027,0.0057,-0.0036,0.0046,0.0048,0.0049,0.005,0,-0.0368,-0.0381,-0.0403,-0.0411,-0.0411,-0.0412,-0.0401,-0.0387,-0.0336,-0.0315,-0.0269,-0.0235,-0.0168,-0.0154,-0.0044,-0.0075,-0.0022,0.002,0.0024,0.0035,0.0033,0.0039,0.0065,0.0064,0.0063,0.0062,0.0061,0,-0.0409,-0.0418,-0.0445,-0.0448,-0.0445,-0.0449,-0.0444,-0.0406,-0.0398,-0.0343,-0.0326,-0.0244,-0.0205,-0.0122,-0.0024,-0.0036,0.0095,0.0089,0.015,0.0151,0.0117,0.0111,0.0171,0.0171,0.0171,0.0171,0.0171,0,-0.0437,-0.0462,-0.0473,-0.0493,-0.0528,-0.0501,-0.052,-0.0494,-0.0455,-0.0445,-0.0357,-0.0322,-0.0195,-0.0105,-0.0023,0.0096,0.0102,0.0163,0.0179,0.0116,0.0109,0.0123,0.0116,0.0174,0.0173,0.0173,0.0172,0,-0.048,-0.0483,-0.0527,-0.0545,-0.0553,-0.0583,-0.0586,-0.0592,-0.0538,-0.052,-0.0503,-0.0374,-0.0243,-0.0111,0.0035,0.0097,0.0204,0.0243,0.017,0.0178,0.0231,0.0223,0.0317,0.0318,0.0319,0.032,0.0321,0,-0.0501,-0.0528,-0.0582,-0.0622,-0.0637,-0.0671,-0.0691,-0.0649,-0.0644,-0.0553,-0.0543,-0.04,-0.0307,-0.0082,0.0053,0.0231,0.0249,0.0295,0.0266,0.0244,0.0249,0.024,0.0232,0.0322,0.0322,0.0322,0.0323,0,-0.0551,-0.0576,-0.0619,-0.07,-0.0743,-0.078,-0.0796,-0.0789,-0.0729,-0.0684,-0.0565,-0.0425,-0.0263,-0.0079,0.0074,0.0191,0.0259,0.0305,0.0303,0.0276,0.0251,0.0253,0.0244,0.0326,0.0325,0.0325,0.0325,0,-0.0596,-0.0646,-0.0707,-0.0771,-0.0832,-0.0861,-0.0862,-0.0827,-0.0796,-0.0674,-0.064,-0.0443,-0.0321,-0.0099,0.0031,0.0166,0.0188,0.02,0.0204,0.0202,0.0146,0.0095,0.0148,0,0,0,0,0,-0.0634,-0.0692,-0.0768,-0.084,-0.0896,-0.0919,-0.0917,-0.0896,-0.0831,-0.0757,-0.0689,-0.0533,-0.0285,-0.0164,-0.0027,0.0029,0.0194,0.019,0.0204,0.0343,0.034,0.0294,0,0,0,0,0,0,-0.0667,-0.0746,-0.078,-0.0871,-0.0922,-0.0972,-0.0967,-0.0923,-0.0858,-0.0773,-0.063,-0.0534,-0.0283,-0.037,-0.0037,0.0009,0.0029,0.0319,0.0321,0.0346,0.0342,0.0339,0.0291,0,0,0,0,0]}]]